Location: Cran-Gévrier
(45.9039°N, 6.1012°E)
Time: 09:48:23
(UTC+00:00)

COSMOS 2428 - Pass Details

Date: 09 February 2023
Orbit: 843 x 858 km, 70.9° (Epoch: 31 March)

Event Time Altitude Azimuth Distance (km) Brightness Sun altitude
Rises 18:55:20 0° 220° (SW) 3,391 6.4 -21.8°
Reaches altitude 10° 18:57:50 10° 226° (SW) 2,459 5.7 -22.2°
Maximum altitude 19:03:20 51° 302° (WNW) 1,049 3.4 -23.1°
Drops below altitude 10° 19:08:52 10° 18° (NNE) 2,474 5.0 -24.1°
Enters shadow 19:09:06 - 19° (NNE) 2,561 5.0 -24.1°
